カタログに戻る

SL-16 DEB

運用中LEO
NORAD 22502·DEBRIS·🇷🇺 Russia

打ち上げ Dec 25, 1992 から Baikonur Cosmodrome

Loading…

次のパス (今後24時間)

TLE

最新Source: Space-Track

元期: Sep 14, 2026, 03:31 UTC

1 22502U 92093GM  26257.14657247  .00000165  00000-0  15657-3 0  9991
2 22502  70.8160 152.6503 0151525 167.4080 343.7260 13.89755122706700

AllMySatでSL-16 DEBをリアルタイム追跡

Download on the App Store